WMT409 EDDV-EGKK

Flight info

Callsign WMT409
Flight time 1h 11m
Altitude 34000
Route VAXEV2F VAXEV Y347 WEZTE DCT ABNED Z344 AMRIV Q63 ARREK Y4 TEBRA
Aircraft A20N/M-SDE2E3FGHIRWXY/LB1

Departure

Time 2026-05-04 12:19
Airport Hannover Airport (EDDV)

Arrival

Time 2026-05-04 13:31
Airport London Gatwick Airport (EGKK)
Time Latitude Longitude Altitude Speed Heading
2026-05-04 11:58 52.45995 9.69317 176 ft 0 kts 95°
2026-05-04 12:06 52.45996 9.69303 176 ft 4 kts 95°
2026-05-04 12:06 52.45998 9.69255 176 ft 4 kts 95°
2026-05-04 12:06 52.46001 9.69207 175 ft 4 kts 95°
2026-05-04 12:06 52.46002 9.69179 176 ft 0 kts 95°
2026-05-04 12:10 52.46001 9.69204 175 ft 8 kts 96°
2026-05-04 12:10 52.45999 9.69225 176 ft 1 kts 99°
2026-05-04 12:10 52.45990 9.69234 176 ft 1 kts 155°
2026-05-04 12:11 52.45988 9.69231 176 ft 0 kts 185°
2026-05-04 12:11 52.45982 9.69225 176 ft 3 kts 204°
2026-05-04 12:11 52.45971 9.69212 177 ft 1 kts 214°
2026-05-04 12:11 52.45965 9.69206 177 ft 1 kts 210°
2026-05-04 12:12 52.45914 9.69161 177 ft 4 kts 208°
2026-05-04 12:12 52.45911 9.69159 177 ft 1 kts 208°
2026-05-04 12:12 52.45875 9.69128 177 ft 0 kts 207°
2026-05-04 12:14 52.45692 9.69149 180 ft 5 kts 185°
2026-05-04 12:15 52.45663 9.69148 181 ft 3 kts 176°
2026-05-04 12:15 52.45646 9.69153 182 ft 6 kts 168°
2026-05-04 12:15 52.45621 9.69207 183 ft 6 kts 96°
2026-05-04 12:15 52.45619 9.69276 193 ft 7 kts 92°
2026-05-04 12:16 52.45613 9.69477 182 ft 31 kts 92°
2026-05-04 12:16 52.45604 9.69823 192 ft 30 kts 92°
2026-05-04 12:16 52.45593 9.70162 186 ft 29 kts 92°
2026-05-04 12:16 52.45585 9.70489 184 ft 29 kts 92°
2026-05-04 12:17 52.45577 9.70809 186 ft 28 kts 92°
2026-05-04 12:17 52.45570 9.70986 195 ft 4 kts 97°
2026-05-04 12:17 52.45558 9.71040 194 ft 9 kts 120°
2026-05-04 12:17 52.45477 9.71099 190 ft 14 kts 192°
2026-05-04 12:18 52.45413 9.71006 206 ft 12 kts 254°
2026-05-04 12:18 52.45409 9.70901 191 ft 0 kts 271°
2026-05-04 12:18 52.45409 9.70900 191 ft 1 kts 271°
2026-05-04 12:19 52.45414 9.70564 198 ft 67 kts 273°
2026-05-04 12:19 52.45450 9.69427 188 ft 129 kts 272°
2026-05-04 12:19 52.45488 9.67755 406 ft 158 kts 272°
2026-05-04 12:19 52.45563 9.65992 1248 ft 151 kts 275°
2026-05-04 12:20 52.45648 9.64306 2158 ft 149 kts 274°
2026-05-04 12:20 52.45717 9.62511 2759 ft 165 kts 272°
2026-05-04 12:20 52.45771 9.60520 3262 ft 185 kts 271°
2026-05-04 12:20 52.45817 9.58319 3798 ft 204 kts 271°
2026-05-04 12:21 52.45863 9.55888 3976 ft 218 kts 271°
2026-05-04 12:21 52.45910 9.53411 3973 ft 214 kts 271°
2026-05-04 12:21 52.45917 9.51006 3977 ft 210 kts 264°
2026-05-04 12:21 52.45640 9.48653 3974 ft 212 kts 252°
2026-05-04 12:22 52.45133 9.46293 3984 ft 238 kts 250°
2026-05-04 12:22 52.44561 9.43593 3971 ft 256 kts 251°
2026-05-04 12:22 52.43987 9.40835 4012 ft 255 kts 251°
2026-05-04 12:22 52.43413 9.38068 4172 ft 259 kts 251°
2026-05-04 12:23 52.42827 9.35248 4163 ft 261 kts 251°
2026-05-04 12:23 52.42246 9.32461 4082 ft 256 kts 251°
2026-05-04 12:23 52.41679 9.29748 3982 ft 248 kts 251°
2026-05-04 12:23 52.41112 9.27045 3975 ft 254 kts 251°
2026-05-04 12:24 52.40543 9.24304 3971 ft 254 kts 252°
2026-05-04 12:24 52.40181 9.21468 4053 ft 255 kts 264°
2026-05-04 12:24 52.40055 9.18548 4518 ft 259 kts 265°
2026-05-04 12:24 52.39919 9.15642 5545 ft 259 kts 264°
2026-05-04 12:25 52.39773 9.12697 6568 ft 262 kts 264°
2026-05-04 12:25 52.39620 9.09703 7510 ft 266 kts 264°
2026-05-04 12:25 52.39589 9.06659 8485 ft 269 kts 270°
2026-05-04 12:25 52.39633 9.03577 9479 ft 273 kts 270°
2026-05-04 12:26 52.39673 9.00444 10364 ft 279 kts 270°
2026-05-04 12:26 52.39713 8.97143 10774 ft 302 kts 270°
2026-05-04 12:26 52.39754 8.93584 11142 ft 322 kts 270°
2026-05-04 12:26 52.39797 8.89887 11939 ft 327 kts 270°
2026-05-04 12:27 52.39840 8.86156 12832 ft 329 kts 270°
2026-05-04 12:27 52.39881 8.82388 13743 ft 332 kts 269°
2026-05-04 12:27 52.39921 8.78588 14544 ft 337 kts 269°
2026-05-04 12:27 52.39960 8.74729 15324 ft 341 kts 269°
2026-05-04 12:28 52.39998 8.70827 16056 ft 345 kts 269°
2026-05-04 12:28 52.40035 8.66881 16793 ft 349 kts 269°
2026-05-04 12:28 52.40071 8.62894 17505 ft 353 kts 269°
2026-05-04 12:28 52.40106 8.58853 18222 ft 356 kts 269°
2026-05-04 12:29 52.40141 8.54780 18860 ft 359 kts 268°
2026-05-04 12:29 52.40174 8.50681 19568 ft 360 kts 268°
2026-05-04 12:29 52.40206 8.46564 20265 ft 363 kts 268°
2026-05-04 12:29 52.40237 8.42419 20961 ft 365 kts 268°
2026-05-04 12:30 52.40267 8.38260 21677 ft 367 kts 268°
2026-05-04 12:30 52.40295 8.34060 22312 ft 370 kts 268°
2026-05-04 12:30 52.40321 8.29830 22996 ft 372 kts 267°
2026-05-04 12:30 52.40171 8.25612 23619 ft 372 kts 259°
2026-05-04 12:31 52.39726 8.21427 24134 ft 373 kts 257°
2026-05-04 12:31 52.39217 8.17249 24674 ft 375 kts 256°
2026-05-04 12:31 52.38714 8.13053 25163 ft 377 kts 257°
2026-05-04 12:31 52.38228 8.08821 25672 ft 379 kts 257°
2026-05-04 12:32 52.37755 8.04562 26177 ft 381 kts 257°
2026-05-04 12:32 52.36828 7.96028 27112 ft 385 kts 258°
2026-05-04 12:32 52.36358 7.91701 27566 ft 387 kts 258°
2026-05-04 12:33 52.35884 7.87357 28015 ft 389 kts 258°
2026-05-04 12:33 52.35405 7.82993 28437 ft 391 kts 257°
2026-05-04 12:33 52.34921 7.78613 28853 ft 393 kts 257°
2026-05-04 12:33 52.34430 7.74198 29261 ft 395 kts 257°
2026-05-04 12:34 52.33937 7.69777 29636 ft 397 kts 257°
2026-05-04 12:34 52.33440 7.65337 30041 ft 398 kts 257°
2026-05-04 12:34 52.32938 7.60866 30357 ft 401 kts 257°
2026-05-04 12:34 52.32432 7.56373 30657 ft 403 kts 257°
2026-05-04 12:35 52.31921 7.51853 30967 ft 405 kts 257°
2026-05-04 12:35 52.31407 7.47321 31317 ft 406 kts 257°
2026-05-04 12:35 52.30890 7.42785 31718 ft 406 kts 257°
2026-05-04 12:35 52.30372 7.38253 32127 ft 405 kts 257°
2026-05-04 12:36 52.29853 7.33729 32519 ft 405 kts 257°
2026-05-04 12:36 52.29333 7.29210 32904 ft 404 kts 257°
2026-05-04 12:36 52.28812 7.24698 33285 ft 404 kts 257°
2026-05-04 12:36 52.28290 7.20205 33662 ft 403 kts 257°
2026-05-04 12:37 52.27766 7.15701 33933 ft 403 kts 257°
2026-05-04 12:37 52.26720 7.06756 33977 ft 401 kts 257°
2026-05-04 12:38 52.25650 6.97694 33978 ft 413 kts 257°
2026-05-04 12:38 52.24545 6.88375 33979 ft 420 kts 257°
2026-05-04 12:39 52.23432 6.79042 33980 ft 419 kts 257°
2026-05-04 12:39 52.22309 6.69705 33981 ft 419 kts 256°
2026-05-04 12:40 52.21179 6.60379 33981 ft 419 kts 256°
2026-05-04 12:40 52.20044 6.51076 33979 ft 419 kts 256°
2026-05-04 12:41 52.18901 6.41767 33977 ft 419 kts 256°
2026-05-04 12:41 52.17749 6.32454 33977 ft 419 kts 256°
2026-05-04 12:42 52.16591 6.23154 33974 ft 419 kts 256°
2026-05-04 12:42 52.15426 6.13861 33972 ft 419 kts 256°
2026-05-04 12:43 52.14253 6.04573 33967 ft 419 kts 256°
2026-05-04 12:43 52.13273 5.96860 33963 ft 419 kts 256°
2026-05-04 12:44 52.12086 5.87571 33967 ft 419 kts 256°
2026-05-04 12:44 52.10894 5.78305 33966 ft 419 kts 255°
2026-05-04 12:45 52.09692 5.69024 33967 ft 419 kts 255°
2026-05-04 12:45 52.08488 5.59785 34358 ft 416 kts 255°
2026-05-04 12:45 52.07880 5.55145 34130 ft 422 kts 255°
2026-05-04 12:46 52.07268 5.50495 33981 ft 420 kts 255°
2026-05-04 12:46 52.06047 5.41245 33975 ft 419 kts 255°
2026-05-04 12:47 52.04816 5.31986 33977 ft 419 kts 255°
2026-05-04 12:47 52.03648 5.23249 33977 ft 419 kts 255°
2026-05-04 12:48 52.02402 5.13994 33977 ft 420 kts 255°
2026-05-04 12:48 52.01148 5.04733 33975 ft 420 kts 255°
2026-05-04 12:49 51.99885 4.95470 33980 ft 420 kts 254°
2026-05-04 12:49 51.98616 4.86220 33984 ft 420 kts 254°
2026-05-04 12:50 51.97338 4.76958 33990 ft 421 kts 254°
2026-05-04 12:50 51.96051 4.67695 33986 ft 421 kts 254°
2026-05-04 12:51 51.94755 4.58422 33990 ft 422 kts 254°
2026-05-04 12:51 51.93452 4.49152 33997 ft 422 kts 254°
2026-05-04 12:52 51.92139 4.39878 33994 ft 423 kts 253°
2026-05-04 12:52 51.90827 4.30660 33822 ft 423 kts 253°
2026-05-04 12:52 51.90164 4.26018 33356 ft 421 kts 253°
2026-05-04 12:53 51.89507 4.21431 33105 ft 417 kts 253°
2026-05-04 12:53 51.88185 4.12269 33120 ft 420 kts 253°
2026-05-04 12:53 51.87519 4.07667 32870 ft 419 kts 253°
2026-05-04 12:54 51.86854 4.03081 32602 ft 417 kts 253°
2026-05-04 12:54 51.86191 3.98526 32343 ft 416 kts 253°
2026-05-04 12:54 51.85529 3.93992 32081 ft 413 kts 253°
2026-05-04 12:54 51.84867 3.89471 31827 ft 414 kts 253°
2026-05-04 12:55 51.84198 3.84929 31568 ft 416 kts 253°
2026-05-04 12:55 51.83525 3.80365 31318 ft 418 kts 253°
2026-05-04 12:55 51.82849 3.75791 31068 ft 419 kts 253°
2026-05-04 12:55 51.82169 3.71198 30817 ft 421 kts 252°
2026-05-04 12:56 51.81485 3.66598 30576 ft 421 kts 252°
2026-05-04 12:56 51.80801 3.62004 30327 ft 420 kts 252°
2026-05-04 12:56 51.80117 3.57426 30086 ft 419 kts 252°
2026-05-04 12:56 51.79432 3.52857 29804 ft 418 kts 252°
2026-05-04 12:57 51.78746 3.48297 29520 ft 417 kts 253°
2026-05-04 12:57 51.78061 3.43758 29238 ft 415 kts 253°
2026-05-04 12:57 51.77377 3.39237 28955 ft 414 kts 253°
2026-05-04 12:57 51.76694 3.34734 28677 ft 413 kts 253°
2026-05-04 12:58 51.76010 3.30239 28402 ft 411 kts 253°
2026-05-04 12:58 51.75328 3.25769 28135 ft 410 kts 253°
2026-05-04 12:58 51.74645 3.21310 27865 ft 408 kts 253°
2026-05-04 12:58 51.73964 3.16873 27603 ft 407 kts 253°
2026-05-04 12:59 51.73283 3.12450 27334 ft 406 kts 253°
2026-05-04 12:59 51.72602 3.08036 27070 ft 404 kts 253°
2026-05-04 12:59 51.71923 3.03648 26816 ft 403 kts 253°
2026-05-04 12:59 51.71253 2.99332 26561 ft 402 kts 254°
2026-05-04 13:00 51.70566 2.94915 26304 ft 400 kts 254°
2026-05-04 13:00 51.69896 2.90621 26055 ft 399 kts 254°
2026-05-04 13:00 51.69210 2.86234 25802 ft 398 kts 254°
2026-05-04 13:00 51.68542 2.81972 25555 ft 397 kts 254°
2026-05-04 13:01 51.67867 2.77674 25305 ft 395 kts 254°
2026-05-04 13:01 51.67191 2.73387 25067 ft 394 kts 254°
2026-05-04 13:01 51.66516 2.69115 24834 ft 393 kts 254°
2026-05-04 13:01 51.65843 2.64861 24591 ft 392 kts 255°
2026-05-04 13:02 51.65169 2.60620 24352 ft 390 kts 255°
2026-05-04 13:02 51.64497 2.56393 24118 ft 389 kts 255°
2026-05-04 13:02 51.63825 2.52183 23885 ft 388 kts 255°
2026-05-04 13:02 51.63152 2.47979 23648 ft 387 kts 255°
2026-05-04 13:03 51.62482 2.43801 23265 ft 387 kts 255°
2026-05-04 13:03 51.61803 2.39575 22510 ft 391 kts 255°
2026-05-04 13:03 51.61120 2.35334 21794 ft 391 kts 255°
2026-05-04 13:03 51.60437 2.31106 21073 ft 390 kts 255°
2026-05-04 13:04 51.59754 2.26886 20338 ft 390 kts 255°
2026-05-04 13:04 51.59070 2.22672 19607 ft 390 kts 255°
2026-05-04 13:04 51.58382 2.18448 18851 ft 391 kts 254°
2026-05-04 13:04 51.57692 2.14216 18179 ft 390 kts 254°
2026-05-04 13:05 51.57017 2.10085 17972 ft 374 kts 254°
2026-05-04 13:05 51.56357 2.06062 17194 ft 374 kts 254°
2026-05-04 13:05 51.55683 2.01974 16221 ft 381 kts 254°
2026-05-04 13:05 51.55006 1.97868 15535 ft 379 kts 254°
2026-05-04 13:06 51.54332 1.93789 14905 ft 376 kts 254°
2026-05-04 13:06 51.53663 1.89750 14334 ft 372 kts 255°
2026-05-04 13:06 51.53010 1.85808 14093 ft 358 kts 255°
2026-05-04 13:06 51.52384 1.82025 14025 ft 341 kts 255°
2026-05-04 13:07 51.51773 1.78341 14020 ft 347 kts 254°
2026-05-04 13:07 51.51146 1.74574 14016 ft 349 kts 255°
2026-05-04 13:07 51.50520 1.70817 14019 ft 348 kts 255°
2026-05-04 13:07 51.49893 1.67062 14019 ft 349 kts 254°
2026-05-04 13:08 51.49263 1.63304 14016 ft 349 kts 254°
2026-05-04 13:08 51.48531 1.59597 14020 ft 348 kts 249°
2026-05-04 13:08 51.47662 1.55975 14015 ft 349 kts 249°
2026-05-04 13:08 51.46823 1.52326 14019 ft 349 kts 249°
2026-05-04 13:09 51.45995 1.48674 14017 ft 348 kts 249°
2026-05-04 13:09 51.45176 1.45070 14017 ft 349 kts 249°
2026-05-04 13:09 51.44333 1.41428 14017 ft 348 kts 247°
2026-05-04 13:09 51.43156 1.38042 14018 ft 348 kts 233°
2026-05-04 13:10 51.41515 1.35206 14015 ft 348 kts 220°
2026-05-04 13:10 51.39575 1.32881 14016 ft 348 kts 216°
2026-05-04 13:10 51.37623 1.30585 14015 ft 348 kts 217°
2026-05-04 13:10 51.35679 1.28291 13989 ft 347 kts 217°
2026-05-04 13:11 51.33741 1.26000 13626 ft 348 kts 217°
2026-05-04 13:11 51.31785 1.23691 12933 ft 351 kts 217°
2026-05-04 13:11 51.29840 1.21396 12604 ft 342 kts 217°
2026-05-04 13:11 51.27950 1.19136 12125 ft 337 kts 221°
2026-05-04 13:12 51.26526 1.16262 11829 ft 326 kts 243°
2026-05-04 13:12 51.25733 1.12905 11399 ft 322 kts 251°
2026-05-04 13:12 51.25023 1.09535 10927 ft 319 kts 251°
2026-05-04 13:12 51.24314 1.06193 10457 ft 317 kts 251°
2026-05-04 13:13 51.23609 1.02894 10130 ft 310 kts 251°
2026-05-04 13:13 51.22916 0.99670 10031 ft 308 kts 251°
2026-05-04 13:13 51.22208 0.96369 10004 ft 318 kts 251°
2026-05-04 13:13 51.21494 0.93040 9961 ft 315 kts 251°
2026-05-04 13:14 51.20796 0.89776 9883 ft 305 kts 251°
2026-05-04 13:14 51.20124 0.86637 9770 ft 293 kts 251°
2026-05-04 13:14 51.19479 0.83624 9626 ft 282 kts 251°
2026-05-04 13:14 51.18855 0.80694 9239 ft 278 kts 251°
2026-05-04 13:15 51.18234 0.77781 8820 ft 277 kts 251°
2026-05-04 13:15 51.17619 0.74885 8426 ft 275 kts 251°
2026-05-04 13:15 51.17005 0.72009 8103 ft 271 kts 251°
2026-05-04 13:15 51.16406 0.69194 8007 ft 271 kts 251°
2026-05-04 13:16 51.15793 0.66313 7995 ft 276 kts 251°
2026-05-04 13:16 51.15179 0.63431 7996 ft 274 kts 251°
2026-05-04 13:16 51.14565 0.60554 7993 ft 275 kts 251°
2026-05-04 13:16 51.13950 0.57673 7992 ft 275 kts 251°
2026-05-04 13:17 51.13337 0.54795 7991 ft 274 kts 251°
2026-05-04 13:17 51.12725 0.51921 7993 ft 274 kts 251°
2026-05-04 13:17 51.12113 0.49049 7990 ft 275 kts 251°
2026-05-04 13:17 51.11498 0.46165 7992 ft 275 kts 251°
2026-05-04 13:18 51.10884 0.43278 7993 ft 276 kts 251°
2026-05-04 13:18 51.10684 0.42339 7992 ft 276 kts 251°
2026-05-04 13:18 51.10499 0.41468 7993 ft 276 kts 251°
2026-05-04 13:19 51.10281 0.40441 7992 ft 276 kts 251°
2026-05-04 13:19 51.09665 0.37548 7991 ft 276 kts 251°
2026-05-04 13:19 51.09051 0.34664 7997 ft 275 kts 251°
2026-05-04 13:19 51.08455 0.31858 7991 ft 276 kts 251°
2026-05-04 13:20 51.07842 0.28968 7993 ft 276 kts 251°
2026-05-04 13:20 51.07233 0.26084 7995 ft 275 kts 251°
2026-05-04 13:20 51.06622 0.23198 7997 ft 276 kts 251°
2026-05-04 13:20 51.06011 0.20309 7995 ft 276 kts 251°
2026-05-04 13:21 51.05400 0.17418 7996 ft 276 kts 251°
2026-05-04 13:21 51.04791 0.14527 8005 ft 276 kts 251°
2026-05-04 13:21 51.04180 0.11635 8012 ft 276 kts 251°
2026-05-04 13:21 51.03571 0.08748 8013 ft 276 kts 251°
2026-05-04 13:22 51.02961 0.05858 8015 ft 276 kts 251°
2026-05-04 13:22 51.02351 0.02957 8015 ft 276 kts 251°
2026-05-04 13:22 51.02092 -0.00041 8016 ft 277 kts 274°
2026-05-04 13:22 51.02302 -0.03088 7995 ft 277 kts 276°
2026-05-04 13:23 51.02528 -0.06121 7812 ft 275 kts 276°
2026-05-04 13:23 51.02751 -0.09122 7467 ft 275 kts 276°
2026-05-04 13:23 51.02971 -0.12129 7140 ft 272 kts 276°
2026-05-04 13:23 51.03184 -0.15115 7036 ft 274 kts 276°
2026-05-04 13:24 51.03399 -0.18130 7019 ft 274 kts 276°
2026-05-04 13:24 51.03615 -0.21142 7020 ft 274 kts 276°
2026-05-04 13:24 51.03830 -0.24153 7008 ft 274 kts 276°
2026-05-04 13:25 51.04252 -0.30076 6687 ft 261 kts 276°
2026-05-04 13:25 51.04452 -0.32888 6585 ft 250 kts 276°
2026-05-04 13:25 51.04642 -0.35557 6482 ft 236 kts 276°
2026-05-04 13:25 51.04821 -0.38083 6387 ft 224 kts 276°
2026-05-04 13:26 51.04991 -0.40447 6326 ft 208 kts 276°
2026-05-04 13:26 51.05419 -0.42559 6190 ft 199 kts 305°
2026-05-04 13:26 51.06500 -0.43844 5910 ft 197 kts 343°
2026-05-04 13:26 51.07839 -0.43822 5579 ft 195 kts 20°
2026-05-04 13:27 51.08908 -0.42604 5157 ft 186 kts 45°
2026-05-04 13:27 51.09819 -0.41138 4510 ft 190 kts 46°
2026-05-04 13:27 51.10756 -0.39622 4027 ft 191 kts 46°
2026-05-04 13:27 51.11647 -0.38085 3633 ft 188 kts 53°
2026-05-04 13:28 51.12283 -0.36292 3228 ft 186 kts 68°
2026-05-04 13:28 51.12680 -0.34339 2805 ft 185 kts 75°
2026-05-04 13:28 51.12966 -0.32409 2566 ft 173 kts 78°
2026-05-04 13:28 51.13213 -0.30627 2283 ft 161 kts 77°
2026-05-04 13:29 51.13441 -0.28968 2138 ft 145 kts 77°
2026-05-04 13:29 51.13655 -0.27454 1884 ft 141 kts 77°
2026-05-04 13:29 51.13894 -0.25922 1394 ft 150 kts 77°
2026-05-04 13:29 51.14127 -0.24317 963 ft 147 kts 77°
2026-05-04 13:30 51.14326 -0.22771 644 ft 140 kts 79°
2026-05-04 13:30 51.14503 -0.21266 318 ft 134 kts 78°
2026-05-04 13:30 51.14707 -0.19909 208 ft 115 kts 82°
2026-05-04 13:30 51.14842 -0.18847 216 ft 79 kts 78°
2026-05-04 13:31 51.14942 -0.18135 216 ft 51 kts 76°
2026-05-04 13:31 51.15096 -0.17770 206 ft 11 kts 11°
2026-05-04 13:31 51.15100 -0.17769 206 ft 0 kts 10°
2026-05-04 13:32 51.15154 -0.17765 205 ft 4 kts 23°
2026-05-04 13:32 51.15186 -0.17662 210 ft 19 kts 73°
2026-05-04 13:32 51.15216 -0.17451 211 ft 21 kts 77°
2026-05-04 13:32 51.15268 -0.17345 210 ft 0 kts
2026-05-04 13:34 51.15302 -0.17357 205 ft 9 kts 347°
2026-05-04 13:35 51.15321 -0.17362 214 ft 0 kts 358°
2026-05-04 13:35 51.15301 -0.17361 217 ft 3 kts 358°
2026-05-04 13:35 51.15305 -0.17361 213 ft 2 kts 358°
2026-05-04 13:36 51.15320 -0.17362 214 ft 3 kts 358°
2026-05-04 13:36 51.15310 -0.17361 211 ft 5 kts 358°
2026-05-04 13:36 51.15332 -0.17363 204 ft 0 kts 357°
2026-05-04 13:36 51.15348 -0.17364 208 ft 0 kts 357°
2026-05-04 13:37 51.15360 -0.17371 206 ft 5 kts 342°
2026-05-04 13:37 51.15397 -0.17388 210 ft 1 kts 343°
2026-05-04 13:37 51.15408 -0.17393 208 ft 9 kts 344°
2026-05-04 13:37 51.15548 -0.17443 204 ft 26 kts 348°
2026-05-04 13:38 51.15704 -0.17498 214 ft 9 kts 347°
2026-05-04 13:38 51.15739 -0.17500 209 ft 0 kts
2026-05-04 13:38 51.15762 -0.17479 209 ft 0 kts 50°
2026-05-04 13:38 51.15800 -0.17484 204 ft 9 kts 347°
2026-05-04 13:39 51.15853 -0.17502 212 ft 0 kts 348°